Temp_Advection
nan nan nan nan nan nan nan nan nan nan nan nan nan nan nan nan nan nan nan nan nan nan
nan 0 -1 -2 0 -0 -1 -1 -2 -3 -3 -2 -1 -1 -0 -0 -1 0 0 -0 0 nan
nan 1 0 -2 -1 -0 -1 -1 -2 -2 -2 -3 -2 -1 -1 -1 0 0 -0 0 0 nan
nan 0 0 -1 -1 -0 -1 -0 -1 -2 -2 -3 -3 -2 -2 -1 -0 -1 -0 -0 -0 nan
nan -1 0 -0 -1 -0 -1 -1 -1 -2 -1 -2 -2 -2 -3 -2 -1 -1 -0 0 0 nan
nan -1 -1 -0 -1 -1 -0 -1 -0 -1 -1 -1 -2 -3 -4 -3 -1 -0 -0 -0 -1 nan
nan -1 -1 -1 -0 -1 -1 -1 -1 -1 -1 -1 -2 -3 -3 -1 -1 -2 -1 -1 -1 nan
nan -0 -1 -1 -1 -1 -1 -0 -0 -1 -1 -1 -1 -2 -2 -1 -2 -2 -1 -1 0 nan
nan -0 -0 -1 -1 -1 -0 -0 -1 -1 -1 -1 -1 -1 -1 -2 -1 -2 -2 -1 -1 nan
nan -0 -0 -0 -1 -1 -1 -0 -0 -1 -1 -1 -1 -1 -1 -1 -2 -3 -2 -1 -2 nan
nan -0 -0 -0 -0 -1 -1 -0 -0 -1 -1 -1 -1 -0 -1 -1 -2 -3 -3 -2 -2 nan
nan -0 -0 -0 -0 -1 -1 -1 -0 -0 -1 -1 -1 -0 -0 -1 -2 -2 -3 -2 -1 nan
nan -0 0 -0 -0 -0 -1 -0 -0 -1 -1 -0 -0 -0 -0 -0 -1 -1 -1 -1 -2 nan
nan nan nan nan nan nan nan nan nan nan nan nan nan nan nan nan nan nan nan nan nan nan
Wind_Speed
26 24 25 26 26 25 24 26 27 26 26 27 35 29 32 32 39 40 40 41 45 39
26 26 25 26 25 23 24 24 26 27 27 27 31 36 32 34 34 41 41 40 41 43
28 27 26 25 25 25 26 25 26 26 25 29 30 33 37 35 33 43 42 43 43 44
29 27 26 25 24 24 26 26 25 26 26 27 30 31 40 40 30 41 46 44 43 45
29 27 27 25 24 24 25 24 25 26 26 26 28 32 37 44 39 34 44 47 46 45
30 27 26 26 25 25 24 24 24 24 25 26 25 30 36 41 41 39 39 44 48 50
30 28 27 26 25 24 24 24 23 24 24 26 25 26 32 40 39 49 36 42 46 51
27 28 27 26 25 25 24 23 22 23 23 25 24 21 22 33 38 43 48 39 46 52
26 26 26 26 26 25 23 22 22 22 23 23 21 17 15 30 34 44 47 43 47 50
25 25 25 25 25 24 24 23 22 22 23 22 19 13 12 17 32 42 48 54 49 50
25 25 25 24 23 22 23 22 21 21 21 19 15 11 14 15 23 41 49 47 47 54
26 26 24 23 23 22 21 20 21 21 21 15 13 10 14 15 16 24 40 42 51 55
26 25 24 23 22 20 20 20 19 22 18 11 14 13 14 15 8 18 32 44 50 60
24 23 22 20 19 19 18 18 19 19 13 10 11 12 11 12 8 4 20 29 43 59
Wind_Direction
323 318 315 312 312 310 308 305 293 281 266 256 242 230 219 220 227 232 230 229 226 222
322 318 313 311 307 309 306 306 301 287 274 263 253 243 227 221 229 226 231 231 232 225
323 318 312 308 305 306 305 302 303 294 281 270 258 251 243 223 224 232 229 229 229 231
323 319 312 306 305 304 303 303 302 298 288 278 266 257 247 233 225 231 233 228 224 226
323 319 313 308 305 305 304 301 301 298 291 285 270 264 256 236 229 241 228 231 231 230
321 320 316 311 308 307 306 300 299 298 294 289 274 266 255 245 235 231 235 231 232 230
315 316 315 313 309 308 305 302 299 299 297 289 280 271 259 245 244 233 236 236 235 232
311 311 312 312 311 309 308 303 299 298 299 291 282 272 253 246 242 235 230 236 235 229
310 309 309 309 308 308 306 305 302 297 299 293 282 276 258 251 244 239 233 230 236 228
309 307 306 306 305 306 308 308 305 299 299 299 284 281 287 251 240 235 232 228 234 224
308 305 305 304 303 302 304 305 308 306 304 304 292 302 307 291 250 239 233 226 227 224
308 305 305 303 302 301 303 308 312 310 309 308 302 314 321 322 270 258 245 226 226 222
310 305 304 303 302 305 303 309 315 310 312 311 325 332 332 346 278 245 234 226 223 214
309 305 304 305 303 306 309 312 316 320 325 330 334 338 336 351 3 187 221 211 213 218
Height
1457 1452 1447 1443 1440 1437 1434 1430 1427 1425 1425 1427 1428 1431 1435 1439 1445 1448 1451 1456 1460 1465
1453 1448 1442 1438 1435 1432 1429 1426 1422 1419 1416 1418 1419 1422 1425 1430 1434 1439 1443 1446 1452 1456
1448 1443 1438 1433 1430 1426 1422 1419 1416 1413 1410 1411 1411 1413 1417 1419 1425 1430 1433 1438 1442 1447
1442 1437 1433 1428 1425 1421 1416 1413 1410 1407 1404 1403 1404 1404 1407 1410 1414 1420 1424 1427 1432 1438
1436 1431 1427 1422 1418 1415 1411 1408 1404 1400 1398 1397 1393 1396 1398 1400 1403 1408 1413 1418 1423 1428
1431 1426 1421 1417 1412 1409 1406 1402 1399 1395 1391 1389 1389 1389 1388 1390 1392 1397 1402 1408 1411 1418
1427 1421 1415 1411 1407 1404 1400 1396 1393 1390 1386 1385 1381 1379 1378 1380 1381 1387 1391 1396 1401 1406
1423 1416 1411 1405 1401 1397 1393 1390 1387 1384 1381 1379 1377 1375 1370 1371 1375 1373 1380 1385 1391 1396
1418 1412 1407 1401 1396 1392 1389 1386 1382 1378 1375 1373 1370 1365 1357 1359 1355 1365 1367 1373 1380 1385
1413 1408 1403 1397 1392 1387 1383 1380 1377 1373 1370 1365 1361 1356 1353 1353 1351 1351 1355 1363 1369 1374
1408 1403 1398 1393 1388 1384 1380 1376 1372 1367 1362 1357 1352 1347 1343 1342 1343 1342 1347 1352 1357 1365
1402 1397 1392 1388 1383 1379 1375 1371 1366 1361 1356 1352 1350 1344 1343 1335 1329 1330 1332 1339 1346 1352
1396 1391 1386 1382 1378 1374 1370 1366 1362 1356 1351 1346 1341 1336 1333 1329 1328 1325 1324 1330 1336 1339
1390 1386 1381 1377 1374 1370 1365 1361 1357 1352 1347 1343 1341 1339 1335 1333 1326 1323 1322 1322 1325 1330